Time,TemperatureF,DewpointF,PressureIn,WindDirection,WindDirectionDegrees,WindSpeedMPH,WindSpeedGustMPH,Humidity,HourlyPrecipIn,Conditions,Clouds,dailyrainin,SoftwareType,DateUTC
2013-03-25 00:00:00,31.6,27.6,29.75,ESE,105,0.0,0.0,85,0.00,,---,0.00,VWS V14.01,2013-03-25 04:00:00,
2013-03-25 00:05:00,31.5,27.5,29.75,ESE,105,0.0,0.0,85,0.00,,---,0.00,VWS V14.01,2013-03-25 04:05:00,
2013-03-25 00:10:00,31.4,27.4,29.75,ESE,105,0.0,0.0,85,0.00,,---,0.00,VWS V14.01,2013-03-25 04:10:00,
2013-03-25 00:15:00,31.3,27.3,29.75,ESE,105,0.0,0.0,85,0.00,,---,0.00,VWS V14.01,2013-03-25 04:15:00,
2013-03-25 00:20:00,31.2,27.5,29.75,ESE,105,0.0,0.0,86,0.00,,---,0.00,VWS V14.01,2013-03-25 04:20:00,
2013-03-25 00:25:00,31.1,27.4,29.75,ESE,105,0.0,0.0,86,0.00,,---,0.00,VWS V14.01,2013-03-25 04:25:00,
2013-03-25 00:30:00,31.0,27.3,29.75,ESE,105,0.0,0.0,86,0.00,,---,0.00,VWS V14.01,2013-03-25 04:30:00,
2013-03-25 00:36:00,30.9,27.5,29.75,ESE,105,0.0,0.0,87,0.00,,---,0.00,VWS V14.01,2013-03-25 04:36:00,
2013-03-25 00:41:00,30.9,27.5,29.75,ESE,105,0.0,0.0,87,0.00,,---,0.00,VWS V14.01,2013-03-25 04:41:00,
2013-03-25 00:46:00,30.8,27.7,29.74,ESE,105,0.0,0.0,88,0.00,,---,0.00,VWS V14.01,2013-03-25 04:46:00,
2013-03-25 00:51:00,30.7,27.3,29.75,ESE,105,0.0,0.0,87,0.00,,---,0.00,VWS V14.01,2013-03-25 04:51:00,
2013-03-25 00:56:00,30.6,27.2,29.74,ESE,105,0.0,0.0,87,0.00,,---,0.00,VWS V14.01,2013-03-25 04:56:00,
2013-03-25 01:01:00,30.4,27.3,29.74,ESE,105,0.0,0.0,88,0.00,,---,0.00,VWS V14.01,2013-03-25 05:01:00,
2013-03-25 01:06:00,30.2,27.1,29.74,ESE,105,0.0,0.0,88,0.00,,---,0.00,VWS V14.01,2013-03-25 05:06:00,
2013-03-25 01:11:00,30.1,27.0,29.74,ESE,105,0.0,0.0,88,0.00,,---,0.00,VWS V14.01,2013-03-25 05:11:00,
2013-03-25 01:16:00,29.9,26.8,29.74,ESE,105,0.0,0.0,88,0.00,,---,0.00,VWS V14.01,2013-03-25 05:16:00,
2013-03-25 01:21:00,29.7,26.6,29.74,ESE,105,0.0,0.0,88,0.00,,---,0.00,VWS V14.01,2013-03-25 05:21:00,
2013-03-25 01:26:00,29.5,26.4,29.74,ESE,105,0.0,0.0,88,0.00,,---,0.00,VWS V14.01,2013-03-25 05:26:00,
2013-03-25 01:31:00,29.4,26.6,29.73,ESE,105,0.0,0.0,89,0.00,,---,0.00,VWS V14.01,2013-03-25 05:31:00,
2013-03-25 01:37:00,29.3,26.5,29.73,ESE,105,0.0,0.0,89,0.00,,---,0.00,VWS V14.01,2013-03-25 05:37:00,
2013-03-25 01:42:00,29.2,26.4,29.73,ESE,105,0.0,0.0,89,0.00,,---,0.00,VWS V14.01,2013-03-25 05:42:00,
2013-03-25 01:47:00,29.0,26.4,29.73,ESE,105,0.0,0.0,90,0.00,,---,0.00,VWS V14.01,2013-03-25 05:47:00,
2013-03-25 01:52:00,28.9,26.3,29.73,ESE,105,0.0,0.0,90,0.00,,---,0.00,VWS V14.01,2013-03-25 05:52:00,
2013-03-25 01:57:00,28.9,26.3,29.73,ESE,105,0.0,0.0,90,0.00,,---,0.00,VWS V14.01,2013-03-25 05:57:00,
2013-03-25 02:02:00,28.8,26.2,29.73,ESE,105,0.0,0.0,90,0.00,,---,0.00,VWS V14.01,2013-03-25 06:02:00,
2013-03-25 02:07:00,28.7,26.1,29.73,ESE,105,0.0,0.0,90,0.00,,---,0.00,VWS V14.01,2013-03-25 06:07:00,
2013-03-25 02:12:00,28.6,26.0,29.73,ESE,105,0.0,0.0,90,0.00,,---,0.00,VWS V14.01,2013-03-25 06:12:00,
2013-03-25 02:17:00,28.5,26.0,29.73,ESE,105,0.0,0.0,90,0.00,,---,0.00,VWS V14.01,2013-03-25 06:17:00,
2013-03-25 02:22:00,28.3,26.0,29.73,ESE,105,0.0,0.0,91,0.00,,---,0.00,VWS V14.01,2013-03-25 06:22:00,
2013-03-25 02:27:00,28.3,26.0,29.73,ESE,105,0.0,0.0,91,0.00,,---,0.00,VWS V14.01,2013-03-25 06:27:00,
2013-03-25 02:32:00,28.2,25.9,29.73,ESE,105,0.0,0.0,91,0.00,,---,0.00,VWS V14.01,2013-03-25 06:32:00,
2013-03-25 02:37:00,28.2,26.2,29.73,ESE,105,0.0,0.0,92,0.00,,---,0.00,VWS V14.01,2013-03-25 06:37:00,
2013-03-25 02:42:00,28.2,26.2,29.73,ESE,105,0.0,0.0,92,0.00,,---,0.00,VWS V14.01,2013-03-25 06:42:00,
2013-03-25 02:47:00,28.1,26.1,29.73,ESE,105,0.0,0.0,92,0.00,,---,0.00,VWS V14.01,2013-03-25 06:47:00,
2013-03-25 02:52:00,28.1,26.1,29.73,ESE,105,0.0,0.0,92,0.00,,---,0.00,VWS V14.01,2013-03-25 06:52:00,
2013-03-25 02:57:00,28.1,26.1,29.72,ESE,105,0.0,0.0,92,0.00,,---,0.00,VWS V14.01,2013-03-25 06:57:00,
2013-03-25 03:03:00,28.1,26.1,29.73,ESE,105,0.0,0.0,92,0.00,,---,0.00,VWS V14.01,2013-03-25 07:03:00,
2013-03-25 03:07:00,28.1,26.3,29.72,ESE,105,0.0,0.0,93,0.00,,---,0.00,VWS V14.01,2013-03-25 07:07:00,
2013-03-25 03:13:00,28.1,26.1,29.72,ESE,105,0.0,0.0,92,0.00,,---,0.00,VWS V14.01,2013-03-25 07:13:00,
2013-03-25 03:18:00,28.0,26.0,29.72,ESE,105,0.0,0.0,92,0.00,,---,0.00,VWS V14.01,2013-03-25 07:18:00,
2013-03-25 03:23:00,27.9,25.9,29.72,ESE,105,0.0,0.0,92,0.00,,---,0.00,VWS V14.01,2013-03-25 07:23:00,
2013-03-25 03:28:00,27.9,26.1,29.72,ESE,105,0.0,0.0,93,0.00,,---,0.00,VWS V14.01,2013-03-25 07:28:00,
2013-03-25 03:33:00,27.8,26.0,29.72,ESE,105,0.0,0.0,93,0.00,,---,0.00,VWS V14.01,2013-03-25 07:33:00,
2013-03-25 03:38:00,27.8,26.0,29.72,ESE,105,0.0,0.0,93,0.00,,---,0.00,VWS V14.01,2013-03-25 07:38:00,
2013-03-25 03:43:00,27.7,25.9,29.72,ESE,105,0.0,0.0,93,0.00,,---,0.00,VWS V14.01,2013-03-25 07:43:00,
2013-03-25 03:48:00,27.6,25.8,29.71,ESE,105,0.0,0.0,93,0.00,,---,0.00,VWS V14.01,2013-03-25 07:48:00,
2013-03-25 03:53:00,27.6,25.8,29.71,ESE,105,0.0,0.0,93,0.00,,---,0.00,VWS V14.01,2013-03-25 07:53:00,
2013-03-25 03:58:00,27.5,25.8,29.71,ESE,105,0.0,0.0,93,0.00,,---,0.00,VWS V14.01,2013-03-25 07:58:00,
2013-03-25 04:03:00,27.4,25.6,29.71,ESE,105,0.0,0.0,93,0.00,,---,0.00,VWS V14.01,2013-03-25 08:03:00,
2013-03-25 04:08:00,27.4,25.6,29.71,ESE,105,0.0,0.0,93,0.00,,---,0.00,VWS V14.01,2013-03-25 08:08:00,
2013-03-25 04:13:00,27.4,25.6,29.71,ESE,105,0.0,0.0,93,0.00,,---,0.00,VWS V14.01,2013-03-25 08:13:00,
2013-03-25 04:18:00,27.3,25.5,29.70,ESE,105,0.0,0.0,93,0.00,,---,0.00,VWS V14.01,2013-03-25 08:18:00,
2013-03-25 04:23:00,27.3,25.5,29.70,ESE,105,0.0,0.0,93,0.00,,---,0.00,VWS V14.01,2013-03-25 08:23:00,
2013-03-25 04:28:00,27.1,25.4,29.70,ESE,105,0.0,0.0,93,0.00,,---,0.00,VWS V14.01,2013-03-25 08:28:00,
2013-03-25 04:33:00,27.0,25.2,29.70,ESE,105,0.0,0.0,93,0.00,,---,0.00,VWS V14.01,2013-03-25 08:33:00,
2013-03-25 04:38:00,26.9,25.1,29.70,ESE,105,0.0,0.0,93,0.00,,---,0.00,VWS V14.01,2013-03-25 08:38:00,
2013-03-25 04:43:00,26.8,25.0,29.70,ESE,105,0.0,0.0,93,0.00,,---,0.00,VWS V14.01,2013-03-25 08:43:00,
2013-03-25 04:48:00,26.7,25.0,29.69,NW,312,0.0,3.0,93,0.00,,---,0.00,VWS V14.01,2013-03-25 08:48:00,
2013-03-25 04:53:00,26.7,25.0,29.70,NW,312,0.0,1.0,93,0.00,,---,0.00,VWS V14.01,2013-03-25 08:53:00,
2013-03-25 04:58:00,26.6,24.9,29.69,NW,312,0.0,1.0,93,0.00,,---,0.00,VWS V14.01,2013-03-25 08:58:00,
2013-03-25 05:04:00,26.6,25.1,29.69,NW,312,0.0,0.0,94,0.00,,---,0.00,VWS V14.01,2013-03-25 09:04:00,
2013-03-25 05:09:00,26.6,25.1,29.69,NW,312,0.0,0.0,94,0.00,,---,0.00,VWS V14.01,2013-03-25 09:09:00,
2013-03-25 05:14:00,26.6,25.1,29.69,NW,312,0.0,0.0,94,0.00,,---,0.00,VWS V14.01,2013-03-25 09:14:00,
2013-03-25 05:19:00,26.6,25.1,29.69,NW,312,0.0,0.0,94,0.00,,---,0.00,VWS V14.01,2013-03-25 09:19:00,
2013-03-25 05:24:00,26.6,25.1,29.69,NW,312,0.0,0.0,94,0.00,,---,0.00,VWS V14.01,2013-03-25 09:24:00,
2013-03-25 05:29:00,26.7,25.2,29.69,NW,312,0.0,0.0,94,0.00,,---,0.00,VWS V14.01,2013-03-25 09:29:00,
2013-03-25 05:34:00,26.8,25.3,29.69,NW,312,0.0,0.0,94,0.00,,---,0.00,VWS V14.01,2013-03-25 09:34:00,
2013-03-25 05:39:00,26.9,25.4,29.69,NW,312,0.0,0.0,94,0.00,,---,0.00,VWS V14.01,2013-03-25 09:39:00,
2013-03-25 05:44:00,26.9,25.4,29.69,NW,312,0.0,0.0,94,0.00,,---,0.00,VWS V14.01,2013-03-25 09:44:00,
2013-03-25 05:49:00,26.8,25.3,29.69,NW,312,0.0,0.0,94,0.00,,---,0.00,VWS V14.01,2013-03-25 09:49:00,
2013-03-25 05:54:00,26.9,25.4,29.69,NW,312,0.0,1.0,94,0.00,,---,0.00,VWS V14.01,2013-03-25 09:54:00,
2013-03-25 06:00:00,26.8,25.3,29.69,NW,311,0.0,0.0,94,0.00,,---,0.00,VWS V14.01,2013-03-25 10:00:00,
2013-03-25 06:05:00,26.9,25.4,29.69,NW,311,0.0,1.0,94,0.00,,---,0.00,VWS V14.01,2013-03-25 10:05:00,
2013-03-25 06:10:00,26.9,25.4,29.69,NW,311,0.0,0.0,94,0.00,,---,0.00,VWS V14.01,2013-03-25 10:10:00,
2013-03-25 06:15:00,26.8,25.3,29.68,NW,311,0.0,1.0,94,0.00,,---,0.00,VWS V14.01,2013-03-25 10:15:00,
2013-03-25 06:20:00,26.8,25.3,29.69,NW,309,0.0,0.0,94,0.00,,---,0.00,VWS V14.01,2013-03-25 10:20:00,
2013-03-25 06:25:00,26.8,25.3,29.68,NW,309,0.0,0.0,94,0.00,,---,0.00,VWS V14.01,2013-03-25 10:25:00,
2013-03-25 06:30:00,26.9,25.4,29.68,NW,309,0.0,0.0,94,0.00,,---,0.00,VWS V14.01,2013-03-25 10:30:00,
2013-03-25 06:35:00,26.9,25.4,29.68,NW,310,1.0,4.0,94,0.00,,---,0.00,VWS V14.01,2013-03-25 10:35:00,
2013-03-25 06:40:00,27.0,25.8,29.68,NW,310,0.0,1.0,95,0.00,,---,0.00,VWS V14.01,2013-03-25 10:40:00,
2013-03-25 06:45:00,27.1,25.6,29.68,NW,314,0.0,2.0,94,0.00,,---,0.00,VWS V14.01,2013-03-25 10:45:00,
2013-03-25 06:50:00,27.1,25.6,29.68,North,349,2.0,4.0,94,0.00,,---,0.00,VWS V14.01,2013-03-25 10:50:00,
2013-03-25 06:55:00,27.2,26.0,29.68,NNW,340,1.0,1.0,95,0.00,,---,0.00,VWS V14.01,2013-03-25 10:55:00,
2013-03-25 07:00:00,27.4,25.9,29.68,NW,322,0.0,5.0,94,0.00,,---,0.00,VWS V14.01,2013-03-25 11:00:00,
2013-03-25 07:05:00,27.8,26.3,29.68,NW,321,0.0,2.0,94,0.00,,---,0.00,VWS V14.01,2013-03-25 11:05:00,
2013-03-25 07:10:00,28.1,26.3,29.68,NW,321,0.0,1.0,93,0.00,,---,0.00,VWS V14.01,2013-03-25 11:10:00,
2013-03-25 07:15:00,28.3,26.5,29.69,NW,317,3.0,4.0,93,0.00,,---,0.00,VWS V14.01,2013-03-25 11:15:00,
2013-03-25 07:21:00,28.6,26.6,29.69,NW,313,0.0,5.0,92,0.00,,---,0.00,VWS V14.01,2013-03-25 11:21:00,
2013-03-25 07:26:00,29.0,26.7,29.69,NNW,342,0.0,5.0,91,0.00,,---,0.00,VWS V14.01,2013-03-25 11:26:00,
2013-03-25 07:31:00,29.3,26.7,29.69,WNW,290,0.0,1.0,90,0.00,,---,0.00,VWS V14.01,2013-03-25 11:31:00,
2013-03-25 07:36:00,29.6,26.8,29.69,WNW,291,0.0,3.0,89,0.00,,---,0.00,VWS V14.01,2013-03-25 11:36:00,
2013-03-25 07:41:00,29.8,27.0,29.69,WNW,296,0.0,1.0,89,0.00,,---,0.00,VWS V14.01,2013-03-25 11:41:00,
2013-03-25 07:46:00,30.1,27.0,29.69,WNW,299,0.0,3.0,88,0.00,,---,0.00,VWS V14.01,2013-03-25 11:46:00,
2013-03-25 07:51:00,30.4,27.0,29.69,WNW,299,0.0,3.0,87,0.00,,---,0.00,VWS V14.01,2013-03-25 11:51:00,
2013-03-25 07:56:00,30.7,27.3,29.69,NW,313,1.0,5.0,87,0.00,,---,0.00,VWS V14.01,2013-03-25 11:56:00,
2013-03-25 08:02:00,31.0,27.0,29.69,NW,314,0.0,3.0,85,0.00,,---,0.00,VWS V14.01,2013-03-25 12:02:00,
2013-03-25 08:07:00,31.4,26.8,29.69,NW,313,0.0,3.0,83,0.00,,---,0.00,VWS V14.01,2013-03-25 12:07:00,
2013-03-25 08:12:00,31.7,26.8,29.69,ESE,102,0.0,6.0,82,0.00,,---,0.00,VWS V14.01,2013-03-25 12:12:00,
2013-03-25 08:17:00,32.1,26.9,29.69,NW,314,1.0,4.0,81,0.00,,---,0.00,VWS V14.01,2013-03-25 12:17:00,
2013-03-25 08:22:00,32.5,27.0,29.69,WNW,296,0.0,2.0,80,0.00,,---,0.00,VWS V14.01,2013-03-25 12:22:00,
2013-03-25 08:27:00,32.8,27.0,29.69,NNE,13,0.0,1.0,79,0.00,,---,0.00,VWS V14.01,2013-03-25 12:27:00,
2013-03-25 08:32:00,33.0,27.5,29.69,North,349,0.0,6.0,80,0.00,,---,0.00,VWS V14.01,2013-03-25 12:32:00,
2013-03-25 08:37:00,33.3,27.5,29.69,North,349,0.0,1.0,79,0.00,,---,0.00,VWS V14.01,2013-03-25 12:37:00,
2013-03-25 08:42:00,33.6,27.5,29.69,NNW,342,1.0,3.0,78,0.00,,---,0.00,VWS V14.01,2013-03-25 12:42:00,
2013-03-25 08:47:00,33.8,27.4,29.69,NNW,338,0.0,4.0,77,0.00,,---,0.00,VWS V14.01,2013-03-25 12:47:00,
2013-03-25 08:52:00,34.2,28.1,29.69,NNW,338,0.0,1.0,78,0.00,,---,0.00,VWS V14.01,2013-03-25 12:52:00,
2013-03-25 08:57:00,34.4,28.0,29.69,NNW,328,1.0,4.0,77,0.00,,---,0.00,VWS V14.01,2013-03-25 12:57:00,
2013-03-25 09:03:00,34.7,28.2,29.69,ENE,57,1.0,7.0,77,0.00,,---,0.00,VWS V14.01,2013-03-25 13:03:00,
2013-03-25 09:08:00,35.0,28.5,29.69,NE,47,4.0,7.0,77,0.00,,---,0.00,VWS V14.01,2013-03-25 13:08:00,
2013-03-25 09:13:00,35.3,28.8,29.69,SSE,154,0.0,5.0,77,0.00,,---,0.00,VWS V14.01,2013-03-25 13:13:00,
2013-03-25 09:18:00,35.5,29.3,29.69,NE,38,4.0,7.0,78,0.00,,---,0.00,VWS V14.01,2013-03-25 13:18:00,
2013-03-25 09:23:00,35.8,29.6,29.68,NNE,26,0.0,6.0,78,0.00,,---,0.00,VWS V14.01,2013-03-25 13:23:00,
2013-03-25 09:28:00,36.1,29.6,29.68,NNE,26,0.0,5.0,77,0.00,,---,0.00,VWS V14.01,2013-03-25 13:28:00,
2013-03-25 09:33:00,36.4,29.9,29.68,NNE,16,0.0,2.0,77,0.00,,---,0.00,VWS V14.01,2013-03-25 13:33:00,
2013-03-25 09:38:00,36.6,29.8,29.68,NNE,18,0.0,7.0,76,0.00,,---,0.00,VWS V14.01,2013-03-25 13:38:00,
2013-03-25 09:43:00,36.7,30.2,29.68,East,100,1.0,7.0,77,0.00,,---,0.00,VWS V14.01,2013-03-25 13:43:00,
2013-03-25 09:48:00,37.0,30.5,29.68,East,86,0.0,4.0,77,0.00,,---,0.00,VWS V14.01,2013-03-25 13:48:00,
2013-03-25 09:53:00,37.2,30.4,29.68,ENE,61,0.0,10.0,76,0.00,,---,0.00,VWS V14.01,2013-03-25 13:53:00,
2013-03-25 09:58:00,37.4,30.9,29.67,East,89,2.0,4.0,77,0.00,,---,0.00,VWS V14.01,2013-03-25 13:58:00,
2013-03-25 10:03:00,37.6,31.1,29.67,ENE,63,0.0,4.0,77,0.00,,---,0.00,VWS V14.01,2013-03-25 14:03:00,
2013-03-25 10:08:00,37.8,31.6,29.67,ENE,58,3.0,10.0,78,0.00,,---,0.00,VWS V14.01,2013-03-25 14:08:00,
2013-03-25 10:13:00,38.0,31.8,29.67,North,5,2.0,5.0,78,0.00,,---,0.00,VWS V14.01,2013-03-25 14:13:00,
2013-03-25 10:18:00,38.3,32.0,29.67,NE,42,4.0,6.0,78,0.00,,---,0.00,VWS V14.01,2013-03-25 14:18:00,
2013-03-25 10:23:00,38.5,32.2,29.66,NW,305,3.0,8.0,78,0.00,,---,0.00,VWS V14.01,2013-03-25 14:23:00,
2013-03-25 10:28:00,38.8,32.5,29.66,ENE,72,2.0,10.0,78,0.00,,---,0.00,VWS V14.01,2013-03-25 14:28:00,
2013-03-25 10:34:00,39.0,32.7,29.66,NNE,22,5.0,5.0,78,0.00,,---,0.00,VWS V14.01,2013-03-25 14:34:00,
2013-03-25 10:39:00,39.3,33.0,29.66,NNE,15,2.0,3.0,78,0.00,,---,0.00,VWS V14.01,2013-03-25 14:39:00,
2013-03-25 10:44:00,39.7,33.4,29.66,West,277,2.0,2.0,78,0.00,,---,0.00,VWS V14.01,2013-03-25 14:44:00,
2013-03-25 10:49:00,40.1,33.5,29.66,ENE,77,1.0,8.0,77,0.00,,---,0.00,VWS V14.01,2013-03-25 14:49:00,
2013-03-25 10:54:00,40.4,33.1,29.66,NE,44,1.0,4.0,75,0.00,,---,0.00,VWS V14.01,2013-03-25 14:54:00,
2013-03-25 10:59:00,40.5,33.2,29.66,ENE,63,5.0,11.0,75,0.00,,---,0.00,VWS V14.01,2013-03-25 14:59:00,
2013-03-25 11:04:00,40.4,33.5,29.66,NNW,346,0.0,1.0,76,0.00,,---,0.00,VWS V14.01,2013-03-25 15:04:00,
2013-03-25 11:09:00,40.4,33.5,29.66,West,276,2.0,2.0,76,0.00,,---,0.00,VWS V14.01,2013-03-25 15:09:00,
2013-03-25 11:14:00,40.2,32.9,29.65,NE,43,0.0,12.0,75,0.00,,---,0.00,VWS V14.01,2013-03-25 15:14:00,
2013-03-25 11:19:00,40.1,33.2,29.66,East,80,3.0,7.0,76,0.00,,---,0.00,VWS V14.01,2013-03-25 15:19:00,
2013-03-25 11:24:00,40.0,33.1,29.65,ENE,63,1.0,3.0,76,0.00,,---,0.00,VWS V14.01,2013-03-25 15:24:00,
2013-03-25 11:29:00,40.0,33.4,29.65,ENE,61,3.0,4.0,77,0.00,,---,0.00,VWS V14.01,2013-03-25 15:29:00,
2013-03-25 11:34:00,40.0,33.4,29.65,NE,42,2.0,3.0,77,0.00,,---,0.00,VWS V14.01,2013-03-25 15:34:00,
2013-03-25 11:40:00,40.0,32.7,29.65,North,360,2.0,10.0,75,0.00,,---,0.00,VWS V14.01,2013-03-25 15:40:00,
2013-03-25 11:45:00,40.1,33.2,29.65,East,85,4.0,8.0,76,0.00,,---,0.00,VWS V14.01,2013-03-25 15:45:00,
2013-03-25 11:50:00,40.2,32.9,29.65,NE,49,4.0,8.0,75,0.00,,---,0.00,VWS V14.01,2013-03-25 15:50:00,
2013-03-25 11:55:00,40.3,33.3,29.65,SE,135,5.0,11.0,76,0.00,,---,0.00,VWS V14.01,2013-03-25 15:55:00,
2013-03-25 12:00:00,40.4,33.5,29.64,East,80,2.0,7.0,76,0.00,,---,0.00,VWS V14.01,2013-03-25 16:00:00,
2013-03-25 12:05:00,40.1,32.8,29.65,East,89,1.0,3.0,75,0.00,,---,0.00,VWS V14.01,2013-03-25 16:05:00,
2013-03-25 12:10:00,40.0,33.1,29.64,ESE,102,4.0,7.0,76,0.00,,---,0.00,VWS V14.01,2013-03-25 16:10:00,
2013-03-25 12:15:00,40.0,33.1,29.64,WSW,238,4.0,9.0,76,0.00,,---,0.00,VWS V14.01,2013-03-25 16:15:00,
2013-03-25 12:20:00,39.9,33.3,29.64,East,95,5.0,8.0,77,0.00,,---,0.00,VWS V14.01,2013-03-25 16:20:00,
2013-03-25 12:25:00,40.0,33.4,29.64,ENE,78,5.0,8.0,77,0.00,,---,0.00,VWS V14.01,2013-03-25 16:25:00,
2013-03-25 12:30:00,40.0,33.4,29.64,ENE,73,4.0,8.0,77,0.00,,---,0.00,VWS V14.01,2013-03-25 16:30:00,
2013-03-25 12:35:00,40.1,33.5,29.64,ESE,121,1.0,2.0,77,0.00,,---,0.00,VWS V14.01,2013-03-25 16:35:00,
2013-03-25 12:40:00,40.2,32.9,29.64,NE,34,4.0,12.0,75,0.00,,---,0.00,VWS V14.01,2013-03-25 16:40:00,
2013-03-25 12:45:00,40.2,33.2,29.64,ENE,73,4.0,7.0,76,0.00,,---,0.00,VWS V14.01,2013-03-25 16:45:00,
2013-03-25 12:51:00,40.2,33.2,29.64,NNE,28,4.0,5.0,76,0.00,,---,0.00,VWS V14.01,2013-03-25 16:51:00,
2013-03-25 12:56:00,40.3,33.7,29.64,NE,56,0.0,3.0,77,0.00,,---,0.00,VWS V14.01,2013-03-25 16:56:00,
2013-03-25 13:01:00,40.3,33.0,29.63,NE,35,2.0,7.0,75,0.00,,---,0.00,VWS V14.01,2013-03-25 17:01:00,
2013-03-25 13:06:00,40.6,33.6,29.63,NE,46,1.0,10.0,76,0.00,,---,0.00,VWS V14.01,2013-03-25 17:06:00,
2013-03-25 13:11:00,40.8,33.8,29.62,North,360,4.0,12.0,76,0.00,,---,0.00,VWS V14.01,2013-03-25 17:11:00,
2013-03-25 13:17:00,40.9,33.9,29.61,NE,41,7.0,12.0,76,0.00,,---,0.00,VWS V14.01,2013-03-25 17:17:00,
2013-03-25 13:22:00,40.9,33.3,29.61,NNE,33,5.0,10.0,74,0.00,,---,0.00,VWS V14.01,2013-03-25 17:22:00,
2013-03-25 13:27:00,41.4,34.1,29.61,WNW,296,0.0,7.0,75,0.00,,---,0.00,VWS V14.01,2013-03-25 17:27:00,
2013-03-25 13:32:00,41.7,34.0,29.61,NNE,27,3.0,14.0,74,0.00,,---,0.00,VWS V14.01,2013-03-25 17:32:00,
2013-03-25 13:37:00,42.3,34.6,29.61,ESE,121,2.0,11.0,74,0.00,,---,0.00,VWS V14.01,2013-03-25 17:37:00,
2013-03-25 13:42:00,42.7,34.3,29.61,NE,51,5.0,10.0,72,0.00,,---,0.00,VWS V14.01,2013-03-25 17:42:00,
2013-03-25 13:47:00,42.6,34.2,29.61,North,11,5.0,12.0,72,0.00,,---,0.00,VWS V14.01,2013-03-25 17:47:00,
2013-03-25 13:52:00,42.5,34.1,29.61,ENE,78,2.0,12.0,72,0.00,,---,0.00,VWS V14.01,2013-03-25 17:52:00,
2013-03-25 13:58:00,42.3,33.9,29.60,NE,50,11.0,11.0,72,0.00,,---,0.00,VWS V14.01,2013-03-25 17:58:00,
2013-03-25 14:02:00,42.3,34.6,29.60,NE,36,2.0,12.0,74,0.00,,---,0.00,VWS V14.01,2013-03-25 18:02:00,
2013-03-25 14:07:00,42.3,34.3,29.60,NE,53,4.0,11.0,73,0.00,,---,0.00,VWS V14.01,2013-03-25 18:07:00,
2013-03-25 14:13:00,42.4,34.4,29.60,East,90,0.0,9.0,73,0.00,,---,0.00,VWS V14.01,2013-03-25 18:13:00,
2013-03-25 14:18:00,42.8,34.8,29.60,NE,41,2.0,12.0,73,0.00,,---,0.00,VWS V14.01,2013-03-25 18:18:00,
2013-03-25 14:23:00,42.6,34.6,29.60,ENE,74,3.0,11.0,73,0.00,,---,0.00,VWS V14.01,2013-03-25 18:23:00,
2013-03-25 14:28:00,42.5,34.5,29.60,NNW,332,1.0,4.0,73,0.00,,---,0.00,VWS V14.01,2013-03-25 18:28:00,
2013-03-25 14:33:00,42.3,33.9,29.59,NNE,32,6.0,11.0,72,0.00,,---,0.00,VWS V14.01,2013-03-25 18:33:00,
2013-03-25 14:38:00,42.4,34.4,29.59,NW,311,5.0,10.0,73,0.00,,---,0.00,VWS V14.01,2013-03-25 18:38:00,
2013-03-25 14:43:00,42.6,34.2,29.59,ENE,70,11.0,11.0,72,0.00,,---,0.00,VWS V14.01,2013-03-25 18:43:00,
2013-03-25 14:48:00,42.2,33.8,29.59,East,95,4.0,8.0,72,0.00,,---,0.00,VWS V14.01,2013-03-25 18:48:00,
2013-03-25 14:53:00,42.2,33.8,29.59,ESE,117,4.0,8.0,72,0.00,,---,0.00,VWS V14.01,2013-03-25 18:53:00,
2013-03-25 14:58:00,42.1,33.4,29.58,East,99,2.0,11.0,71,0.00,,---,0.00,VWS V14.01,2013-03-25 18:58:00,
2013-03-25 15:03:00,41.9,33.2,29.57,NE,54,1.0,12.0,71,0.00,,---,0.00,VWS V14.01,2013-03-25 19:03:00,
2013-03-25 15:08:00,41.9,33.5,29.57,NNE,32,3.0,12.0,72,0.00,,---,0.00,VWS V14.01,2013-03-25 19:08:00,
2013-03-25 15:14:00,42.3,33.2,29.56,ESE,107,6.0,10.0,70,0.00,,---,0.00,VWS V14.01,2013-03-25 19:14:00,
2013-03-25 15:19:00,42.2,32.8,29.55,East,94,2.0,6.0,69,0.00,,---,0.00,VWS V14.01,2013-03-25 19:19:00,
2013-03-25 15:24:00,42.0,32.9,29.55,SE,140,5.0,5.0,70,0.00,,---,0.00,VWS V14.01,2013-03-25 19:24:00,
2013-03-25 15:29:00,42.0,32.9,29.54,East,85,0.0,1.0,70,0.00,,---,0.00,VWS V14.01,2013-03-25 19:29:00,
2013-03-25 15:34:00,41.7,33.0,29.54,NE,34,11.0,12.0,71,0.00,,---,0.00,VWS V14.01,2013-03-25 19:34:00,
2013-03-25 15:39:00,41.6,33.3,29.53,NE,49,4.0,8.0,72,0.00,,---,0.00,VWS V14.01,2013-03-25 19:39:00,
2013-03-25 15:44:00,41.9,33.2,29.53,NNE,22,4.0,10.0,71,0.00,,---,0.00,VWS V14.01,2013-03-25 19:44:00,
2013-03-25 15:49:00,41.6,32.6,29.52,NE,55,3.0,8.0,70,0.00,,---,0.00,VWS V14.01,2013-03-25 19:49:00,
2013-03-25 15:54:00,41.0,32.7,29.52,NW,320,0.0,2.0,72,0.00,,---,0.00,VWS V14.01,2013-03-25 19:54:00,
2013-03-25 15:59:00,40.7,32.4,29.52,East,98,1.0,4.0,72,0.00,,---,0.00,VWS V14.01,2013-03-25 19:59:00,
2013-03-25 16:04:00,40.3,32.3,29.52,East,97,1.0,4.0,73,0.00,,---,0.00,VWS V14.01,2013-03-25 20:04:00,
2013-03-25 16:09:00,40.2,32.2,29.52,NE,56,3.0,6.0,73,0.00,,---,0.00,VWS V14.01,2013-03-25 20:09:00,
2013-03-25 16:14:00,40.1,31.8,29.53,East,90,8.0,8.0,72,0.00,,---,0.00,VWS V14.01,2013-03-25 20:14:00,
2013-03-25 16:19:00,39.8,32.5,29.53,NNE,30,4.0,6.0,75,0.00,,---,0.00,VWS V14.01,2013-03-25 20:19:00,
2013-03-25 16:24:00,39.7,32.1,29.53,NE,52,5.0,10.0,74,0.00,,---,0.00,VWS V14.01,2013-03-25 20:24:00,
2013-03-25 16:30:00,39.6,32.0,29.52,ENE,61,5.0,9.0,74,0.00,,---,0.00,VWS V14.01,2013-03-25 20:30:00,
2013-03-25 16:35:00,39.5,31.9,29.52,ENE,60,5.0,16.0,74,0.00,,---,0.00,VWS V14.01,2013-03-25 20:35:00,
2013-03-25 16:40:00,39.5,31.9,29.53,NE,35,3.0,4.0,74,0.00,,---,0.00,VWS V14.01,2013-03-25 20:40:00,
2013-03-25 16:45:00,39.5,31.9,29.52,ENE,61,2.0,6.0,74,0.00,,---,0.00,VWS V14.01,2013-03-25 20:45:00,
2013-03-25 16:50:00,39.6,32.3,29.53,WNW,288,0.0,7.0,75,0.00,,---,0.00,VWS V14.01,2013-03-25 20:50:00,
2013-03-25 16:55:00,39.6,32.7,29.53,NNE,28,6.0,6.0,76,0.00,,---,0.00,VWS V14.01,2013-03-25 20:55:00,
2013-03-25 17:00:00,39.6,32.3,29.52,NNE,15,2.0,3.0,75,0.00,,---,0.00,VWS V14.01,2013-03-25 21:00:00,
2013-03-25 17:05:00,39.5,31.9,29.52,East,94,0.0,7.0,74,0.00,,---,0.00,VWS V14.01,2013-03-25 21:05:00,
2013-03-25 17:10:00,39.3,32.0,29.52,East,89,6.0,6.0,75,0.00,,---,0.00,VWS V14.01,2013-03-25 21:10:00,
2013-03-25 17:15:00,39.3,31.7,29.52,NNE,15,7.0,11.0,74,0.00,,---,0.00,VWS V14.01,2013-03-25 21:15:00,
2013-03-25 17:20:00,39.1,31.9,29.52,NE,34,4.0,10.0,75,0.00,,---,0.00,VWS V14.01,2013-03-25 21:20:00,
2013-03-25 17:25:00,39.0,32.1,29.53,NE,53,3.0,8.0,76,0.00,,---,0.00,VWS V14.01,2013-03-25 21:25:00,
2013-03-25 17:30:00,38.9,32.0,29.53,NW,305,0.0,5.0,76,0.00,,---,0.00,VWS V14.01,2013-03-25 21:30:00,
2013-03-25 17:35:00,38.9,32.0,29.53,SE,134,1.0,2.0,76,0.00,,---,0.00,VWS V14.01,2013-03-25 21:35:00,
2013-03-25 17:40:00,38.9,32.0,29.52,NE,51,5.0,6.0,76,0.00,,---,0.00,VWS V14.01,2013-03-25 21:40:00,
2013-03-25 17:45:00,38.8,32.2,29.53,ENE,73,2.0,7.0,77,0.00,,---,0.00,VWS V14.01,2013-03-25 21:45:00,
2013-03-25 17:50:00,38.8,32.2,29.53,East,99,1.0,4.0,77,0.00,,---,0.00,VWS V14.01,2013-03-25 21:50:00,
2013-03-25 17:55:00,38.8,32.2,29.53,ENE,59,4.0,6.0,77,0.00,,---,0.00,VWS V14.01,2013-03-25 21:55:00,
2013-03-25 18:00:00,38.7,32.1,29.52,NE,50,7.0,10.0,77,0.00,,---,0.00,VWS V14.01,2013-03-25 22:00:00,
2013-03-25 18:05:00,38.6,32.3,29.53,NE,44,1.0,4.0,78,0.00,,---,0.00,VWS V14.01,2013-03-25 22:05:00,
2013-03-25 18:11:00,38.6,32.3,29.53,ESE,113,2.0,8.0,78,0.00,,---,0.00,VWS V14.01,2013-03-25 22:11:00,
2013-03-25 18:16:00,38.6,32.3,29.53,WNW,296,0.0,5.0,78,0.00,,---,0.00,VWS V14.01,2013-03-25 22:16:00,
2013-03-25 18:21:00,38.5,32.2,29.53,ENE,64,0.0,7.0,78,0.00,,---,0.00,VWS V14.01,2013-03-25 22:21:00,
2013-03-25 18:26:00,38.5,32.6,29.53,NE,49,4.0,9.0,79,0.00,,---,0.00,VWS V14.01,2013-03-25 22:26:00,
2013-03-25 18:31:00,38.4,32.5,29.53,ENE,63,0.0,6.0,79,0.00,,---,0.00,VWS V14.01,2013-03-25 22:31:00,
2013-03-25 18:36:00,38.3,32.4,29.53,NE,38,0.0,8.0,79,0.00,,---,0.00,VWS V14.01,2013-03-25 22:36:00,
2013-03-25 18:41:00,38.3,32.0,29.53,South,176,4.0,4.0,78,0.00,,---,0.00,VWS V14.01,2013-03-25 22:41:00,
2013-03-25 18:46:00,38.2,32.3,29.53,NE,37,2.0,4.0,79,0.00,,---,0.00,VWS V14.01,2013-03-25 22:46:00,
2013-03-25 18:52:00,38.1,32.2,29.53,East,82,0.0,5.0,79,0.00,,---,0.00,VWS V14.01,2013-03-25 22:52:00,
2013-03-25 18:57:00,37.9,32.0,29.53,NNW,339,0.0,5.0,79,0.00,,---,0.00,VWS V14.01,2013-03-25 22:57:00,
2013-03-25 19:02:00,37.8,32.2,29.53,North,5,2.0,8.0,80,0.00,,---,0.00,VWS V14.01,2013-03-25 23:02:00,
2013-03-25 19:07:00,37.7,32.1,29.53,NNW,346,0.0,4.0,80,0.00,,---,0.00,VWS V14.01,2013-03-25 23:07:00,
2013-03-25 19:12:00,37.5,31.9,29.53,NNE,28,3.0,5.0,80,0.00,,---,0.00,VWS V14.01,2013-03-25 23:12:00,
2013-03-25 19:17:00,37.4,31.8,29.53,East,86,2.0,5.0,80,0.00,,---,0.00,VWS V14.01,2013-03-25 23:17:00,
2013-03-25 19:22:00,37.3,32.0,29.53,NE,38,0.0,8.0,81,0.00,,---,0.00,VWS V14.01,2013-03-25 23:22:00,
2013-03-25 19:27:00,37.2,31.9,29.53,North,355,0.0,4.0,81,0.00,,---,0.00,VWS V14.01,2013-03-25 23:27:00,
2013-03-25 19:32:00,37.0,31.7,29.53,NE,46,0.0,6.0,81,0.00,,---,0.00,VWS V14.01,2013-03-25 23:32:00,
2013-03-25 19:37:00,36.9,31.9,29.53,WNW,289,0.0,3.0,82,0.00,,---,0.00,VWS V14.01,2013-03-25 23:37:00,
2013-03-25 19:43:00,36.8,31.8,29.53,NE,52,0.0,9.0,82,0.00,,---,0.00,VWS V14.01,2013-03-25 23:43:00,
2013-03-25 19:48:00,36.8,31.8,29.54,ENE,63,1.0,4.0,82,0.00,,---,0.00,VWS V14.01,2013-03-25 23:48:00,
2013-03-25 19:53:00,36.8,31.8,29.54,SSE,150,2.0,6.0,82,0.00,,---,0.00,VWS V14.01,2013-03-25 23:53:00,
2013-03-25 19:58:00,36.7,31.7,29.54,WNW,292,2.0,5.0,82,0.00,,---,0.00,VWS V14.01,2013-03-25 23:58:00,
2013-03-25 20:03:00,36.6,31.6,29.54,ENE,57,0.0,8.0,82,0.00,,---,0.00,VWS V14.01,2013-03-26 00:03:00,
2013-03-25 20:08:00,36.6,31.9,29.54,ENE,61,0.0,4.0,83,0.00,,---,0.00,VWS V14.01,2013-03-26 00:08:00,
2013-03-25 20:13:00,36.6,31.9,29.54,North,355,1.0,7.0,83,0.00,,---,0.00,VWS V14.01,2013-03-26 00:13:00,
2013-03-25 20:18:00,36.5,31.8,29.54,NNE,29,1.0,5.0,83,0.00,,---,0.00,VWS V14.01,2013-03-26 00:18:00,
2013-03-25 20:23:00,36.4,31.7,29.54,NNE,13,2.0,10.0,83,0.00,,---,0.00,VWS V14.01,2013-03-26 00:23:00,
2013-03-25 20:28:00,36.4,31.7,29.54,NE,40,0.0,7.0,83,0.00,,---,0.00,VWS V14.01,2013-03-26 00:28:00,
2013-03-25 20:33:00,36.4,31.7,29.55,NE,41,0.0,4.0,83,0.00,,---,0.00,VWS V14.01,2013-03-26 00:33:00,
2013-03-25 20:38:00,36.4,31.7,29.55,NNE,28,0.0,6.0,83,0.00,,---,0.00,VWS V14.01,2013-03-26 00:38:00,
2013-03-25 20:43:00,36.4,31.7,29.55,West,267,0.0,3.0,83,0.00,,---,0.00,VWS V14.01,2013-03-26 00:43:00,
2013-03-25 20:48:00,36.4,31.4,29.55,North,355,1.0,4.0,82,0.00,,---,0.00,VWS V14.01,2013-03-26 00:48:00,
2013-03-25 20:53:00,36.4,31.4,29.55,NNW,329,0.0,4.0,82,0.00,,---,0.00,VWS V14.01,2013-03-26 00:53:00,
2013-03-25 20:58:00,36.4,31.4,29.55,NNW,329,0.0,1.0,82,0.00,,---,0.00,VWS V14.01,2013-03-26 00:58:00,
2013-03-25 21:03:00,36.4,31.4,29.54,NNW,337,0.0,3.0,82,0.00,,---,0.00,VWS V14.01,2013-03-26 01:03:00,
2013-03-25 21:08:00,36.4,31.4,29.55,NW,305,1.0,3.0,82,0.00,,---,0.00,VWS V14.01,2013-03-26 01:08:00,
2013-03-25 21:13:00,36.4,31.4,29.55,NNW,328,3.0,5.0,82,0.00,,---,0.00,VWS V14.01,2013-03-26 01:13:00,
2013-03-25 21:18:00,36.4,31.4,29.55,WNW,294,0.0,3.0,82,0.00,,---,0.00,VWS V14.01,2013-03-26 01:18:00,
2013-03-25 21:23:00,36.4,31.7,29.54,NNW,330,1.0,7.0,83,0.00,,---,0.00,VWS V14.01,2013-03-26 01:23:00,
2013-03-25 21:28:00,36.3,31.6,29.54,NNW,346,0.0,6.0,83,0.00,,---,0.00,VWS V14.01,2013-03-26 01:28:00,
2013-03-25 21:33:00,36.2,31.5,29.54,NW,315,0.0,6.0,83,0.00,,---,0.00,VWS V14.01,2013-03-26 01:33:00,
2013-03-25 21:39:00,36.2,31.5,29.54,NW,310,0.0,0.0,83,0.00,,---,0.00,VWS V14.01,2013-03-26 01:39:00,
2013-03-25 21:44:00,36.2,31.2,29.54,West,273,2.0,2.0,82,0.00,,---,0.00,VWS V14.01,2013-03-26 01:44:00,
2013-03-25 21:49:00,36.2,31.2,29.54,NW,308,1.0,1.0,82,0.00,,---,0.00,VWS V14.01,2013-03-26 01:49:00,
2013-03-25 21:54:00,36.2,31.2,29.54,NNE,22,5.0,5.0,82,0.00,,---,0.00,VWS V14.01,2013-03-26 01:54:00,
2013-03-25 21:59:00,36.1,31.1,29.54,North,10,0.0,1.0,82,0.00,,---,0.00,VWS V14.01,2013-03-26 01:59:00,
2013-03-25 22:04:00,36.1,31.1,29.54,North,360,1.0,3.0,82,0.00,,---,0.00,VWS V14.01,2013-03-26 02:04:00,
2013-03-25 22:09:00,36.1,31.5,29.54,NNW,331,0.0,0.0,83,0.00,,---,0.00,VWS V14.01,2013-03-26 02:09:00,
2013-03-25 22:14:00,36.0,31.4,29.54,WNW,294,1.0,1.0,83,0.00,,---,0.00,VWS V14.01,2013-03-26 02:14:00,
2013-03-25 22:19:00,35.9,31.2,29.54,NW,304,0.0,2.0,83,0.00,,---,0.00,VWS V14.01,2013-03-26 02:19:00,
2013-03-25 22:24:00,35.8,31.1,29.53,North,5,5.0,6.0,83,0.00,,---,0.00,VWS V14.01,2013-03-26 02:24:00,
2013-03-25 22:29:00,35.8,31.1,29.54,NW,319,2.0,2.0,83,0.00,,---,0.00,VWS V14.01,2013-03-26 02:29:00,
2013-03-25 22:34:00,35.7,31.0,29.53,NNW,330,1.0,2.0,83,0.00,,---,0.00,VWS V14.01,2013-03-26 02:34:00,
2013-03-25 22:39:00,35.7,31.0,29.53,NW,317,3.0,5.0,83,0.00,,---,0.00,VWS V14.01,2013-03-26 02:39:00,
2013-03-25 22:44:00,35.7,31.0,29.53,NNE,13,4.0,7.0,83,0.00,,---,0.00,VWS V14.01,2013-03-26 02:44:00,
2013-03-25 22:49:00,35.6,31.0,29.53,NNW,329,1.0,1.0,83,0.00,,---,0.00,VWS V14.01,2013-03-26 02:49:00,
2013-03-25 22:54:00,35.6,31.0,29.53,NE,51,0.0,1.0,83,0.00,,---,0.00,VWS V14.01,2013-03-26 02:54:00,
2013-03-25 22:59:00,35.6,31.0,29.53,West,279,1.0,3.0,83,0.00,,---,0.00,VWS V14.01,2013-03-26 02:59:00,
2013-03-25 23:05:00,35.7,30.8,29.53,NW,319,3.0,5.0,82,0.00,,---,0.00,VWS V14.01,2013-03-26 03:05:00,
2013-03-25 23:10:00,35.8,30.9,29.53,NW,319,0.0,2.0,82,0.00,,---,0.00,VWS V14.01,2013-03-26 03:10:00,
2013-03-25 23:15:00,35.8,30.5,29.53,NW,315,1.0,5.0,81,0.00,,---,0.00,VWS V14.01,2013-03-26 03:15:00,
2013-03-25 23:20:00,35.8,30.5,29.53,NW,315,0.0,3.0,81,0.00,,---,0.00,VWS V14.01,2013-03-26 03:20:00,
2013-03-25 23:25:00,35.9,30.3,29.53,NW,315,1.0,1.0,80,0.00,,---,0.00,VWS V14.01,2013-03-26 03:25:00,
2013-03-25 23:30:00,35.9,30.6,29.53,NW,323,0.0,3.0,81,0.00,,---,0.00,VWS V14.01,2013-03-26 03:30:00,
2013-03-25 23:35:00,35.8,30.5,29.53,NNE,23,0.0,2.0,81,0.00,,---,0.00,VWS V14.01,2013-03-26 03:35:00,
2013-03-25 23:40:00,35.7,30.5,29.52,WNW,292,2.0,4.0,81,0.00,,---,0.00,VWS V14.01,2013-03-26 03:40:00,
2013-03-25 23:45:00,35.7,30.1,29.52,NW,319,1.0,2.0,80,0.00,,---,0.00,VWS V14.01,2013-03-26 03:45:00,
2013-03-25 23:50:00,35.8,30.2,29.52,NW,315,0.0,1.0,80,0.00,,---,0.00,VWS V14.01,2013-03-26 03:50:00,
2013-03-25 23:55:00,35.8,30.2,29.52,NNW,338,1.0,2.0,80,0.00,,---,0.00,VWS V14.01,2013-03-26 03:55:00,